Weather History for Tucumcari, NM

Change the Weather History Date:

Thursday, February 7, 2013

  Actual Average Record
Temperature  
Mean Temperature 44 °F -  
Max Temperature 55 °F 52 °F 77 °F (1963)
Min Temperature 32 °F 24 °F -7 °F (1933)
Degree Days  
Heating Degree Days 22    
Moisture  
Dew Point 20 °F    
Average Humidity 36    
Maximum Humidity 55    
Minimum Humidity 21    
Precipitation  
Precipitation 0.00 in - - ()
Sea Level Pressure  
Sea Level Pressure 30.04 in    
Wind  
Wind Speed 10 mph (NNE)    
Max Wind Speed 21 mph    
Max Gust Speed 29 mph    
Visibility 10 miles    
Events      
Averages and records for this station are not official NWS values.
T = Trace of Precipitation, MM = Missing Value Source: NWS Daily Summary

Daily Weather History Graph

Daily Weather History Graph

Search for Another Location

Airport:

Trip Planner

Search our weather history database for the weather conditions in past years. The results will help you decide how hot, cold, wet, or windy it might be!

Date:

Astronomy

Feb. 07, 2013 Rise Set
Actual Time 6:48 AM MST 5:29 PM MST
Civil Twilight 6:21 AM MST 5:55 PM MST
Nautical Twilight 5:51 AM MST 6:25 PM MST
Astronomical Twilight 5:22 AM MST 6:55 PM MST
Moon 4:26 AM MST (2/7) 2:59 PM MST (2/7)
Length of Visible Light 11h 33m
Length of Day
10h 41m
Waning Crescent, 8% of the Moon is Illuminated
Feb 7
Waning Crescent
Feb 10
New
Feb 17
First Quarter
Feb 25
Full
Mar 4
Last Quarter

Hourly Weather History & Observations

Time (MST) Temp. Windchill Dew Point Humidity Pressure Visibility Wind Dir Wind Speed Gust Speed Precip Events Conditions
12:53 AM 50.0 °F - 18.0 °F 28% 29.78 in 10.0 mi North 10.4 mph - N/A   Clear
1:53 AM 46.0 °F 41.4 °F 18.0 °F 33% 29.81 in 10.0 mi NNW 9.2 mph - N/A   Clear
2:53 AM 48.0 °F - 19.9 °F 33% 29.84 in 10.0 mi North 12.7 mph - N/A   Clear
3:53 AM 46.0 °F 41.0 °F 21.9 °F 39% 29.88 in 10.0 mi North 10.4 mph - N/A   Clear
4:53 AM 45.0 °F 38.9 °F 24.1 °F 44% 29.92 in 10.0 mi North 12.7 mph - N/A   Clear
5:53 AM 43.0 °F 40.3 °F 26.1 °F 51% 29.96 in 10.0 mi North 4.6 mph - N/A   Clear
6:53 AM 42.1 °F 39.2 °F 27.0 °F 55% 30.01 in 10.0 mi NNE 4.6 mph - N/A   Mostly Cloudy
7:53 AM 46.9 °F - 30.0 °F 52% 30.03 in 10.0 mi NNW 9.2 mph - N/A   Overcast
8:53 AM 48.9 °F - 30.0 °F 48% 30.05 in 10.0 mi NNW 13.8 mph - N/A   Mostly Cloudy
9:53 AM 52.0 °F - 27.0 °F 38% 30.07 in 10.0 mi NNE 12.7 mph 18.4 mph N/A   Partly Cloudy
10:53 AM 54.0 °F - 23.0 °F 30% 30.10 in 10.0 mi NE 20.7 mph 28.8 mph N/A   Mostly Cloudy
11:53 AM 54.0 °F - 21.0 °F 28% 30.10 in 10.0 mi NNE 17.3 mph - N/A   Mostly Cloudy
12:53 PM 55.0 °F - 19.0 °F 24% 30.07 in 10.0 mi NE 15.0 mph 23.0 mph N/A   Clear
1:53 PM 55.9 °F - 16.0 °F 21% 30.06 in 10.0 mi NE 15.0 mph 19.6 mph N/A   Clear
2:53 PM 55.9 °F - 16.0 °F 21% 30.06 in 10.0 mi NE 9.2 mph - N/A   Clear
3:53 PM 55.9 °F - 17.1 °F 22% 30.07 in 10.0 mi NE 6.9 mph - N/A   Clear
4:53 PM 53.1 °F - 18.0 °F 25% 30.09 in 10.0 mi East 6.9 mph - N/A   Clear
5:53 PM 46.0 °F 42.5 °F 16.0 °F 30% 30.13 in 10.0 mi ESE 6.9 mph - N/A   Clear
6:53 PM 42.1 °F 37.7 °F 15.1 °F 34% 30.16 in 10.0 mi ESE 6.9 mph - N/A   Clear
7:53 PM 41.0 °F - 16.0 °F 36% 30.16 in 10.0 mi Calm Calm - N/A   Clear
8:53 PM 37.0 °F - 15.1 °F 41% 30.17 in 10.0 mi Calm Calm - N/A   Clear
9:53 PM 37.0 °F - 16.0 °F 42% 30.17 in 10.0 mi Calm Calm - N/A   Clear
10:53 PM 32.0 °F 26.4 °F 14.0 °F 48% 30.18 in 10.0 mi WSW 5.8 mph - N/A   Clear
11:53 PM 35.1 °F 29.3 °F 17.1 °F 48% 30.18 in 10.0 mi SSW 6.9 mph - N/A   Clear